RunnerspaceNewsView

2012 Results - California CIF State Track and Field Championships

Published by RunnerSpace.com/HighSchool
Jun 3 2012, 01:10 AM | 512797 views
PrintReport
Social
Images
2012 Results - California CIF State Track and Field Championships
California CIF State Track and Field Championships
Jun 1, 2012 to Jun 2, 2012
Veterans Memorial Stadium, 1560 N. Minnewawa, Clovis, CA, US, 93619
 
| 100m | 200m | 400m | 800m | 1600m | 3200m | 100m Hurdles | 110m Hurdles | 300m Hurdles | 4x100m Relay | 4x400m Relay | Shot Put | Discus | High Jump | Long Jump | Triple Jump | Pole Vault
 
Mens Long Jump Back to top
  Name Yr School Finals Wind H# Pts
1 Jackson, Adoree 10 Serra (SS) 25-00.50(7.63m) +1.9 1 10
2 Monteiro-Williams, Jorda 12 McClatchy 23-09.75(7.26m) +2.8 1 8
3 Jones, Walter 11 Redlands 23-09.50(7.25m) +3.7 1 6
4 Moore, Nathaniel 10 Bishop O'Dowd 23-06.75(7.18m) +1.3 1 5
5 Fairweather, Hakeem 12 Warren 23-05.25(7.14m) +2.6 1 4
6 Simms, Shawn 12 Deer Valley 22-10.25(6.97m) +3.0 1 3
7 Delunay, Klyvens 12 Claremont 22-08.75(6.93m) +2.1 1 2
8 King, Chevy 12 Castle Park 22-04.50(6.82m) +4.3 1 1
9 Wieker, Devin 12 Foothill (Pleasa 21-02.25(6.46m) +2.9 1  
 
Mens Long Jump Back to top
  Name Yr School Prelims Wind H# Pts
1 Jackson, Adoree 10 Serra (SS) 24-02.00(7.37m) +0.8 1  
2 Fairweather, Hakeem 12 Warren 23-11.50(7.30m) +0.4 1  
3 King, Chevy 12 Castle Park 23-08.50(7.23m) +1.1 1  
3 Simms, Shawn 12 Deer Valley 23-08.50(7.23m) +2.2 1  
5 Delunay, Klyvens 12 Claremont 23-06.50(7.18m) +0.5 1  
6 Moore, Nathaniel 10 Bishop O'Dowd 23-04.00(7.11m) +1.1 1  
7 Monteiro-Williams, Jorda 12 McClatchy 23-03.50(7.10m) +2.4 1  
8 Jones, Walter 11 Redlands 23-03.25(7.09m) +1.0 1  
9 Wieker, Devin 12 Foothill (Pleasa 23-01.50(7.05m) +2.9 1  
10 Alexander, Willie 12 Central 23-00.75(7.03m) +1.5 1  
11 Wethington, Karsten 10 James Logan 22-10.50(6.97m) +1.6 1  
12 Schneider, Justin 12 El Toro 22-08.25(6.92m) +1.0 1  
13 Souza, Joey 9 Kingsburg 22-07.25(6.89m) +0.4 1  
14 Eggleston, Marcus 12 Dorsey 22-06.25(6.86m) +2.6 1  
15 Glasgow, Blake 12 Poly (Long Beach 22-05.25(6.84m) +0.9 1  
16 Wong, Matthew 11 Archbishop Mitty 22-03.25(6.79m) +0.8 1  
17 Simpson, Alexander 11 University City 22-02.75(6.78m) +1.1 1  
18 Poullard, Miles 12 Colony 22-01.00(6.73m) +0.6 1  
19 Halverson, Tyler 12 Foothill (Palo C 22-00.75(6.72m) nwi 1  
20 Nasser, Saladin 11 Sweetwater 21-11.50(6.69m) +0.8 1  
21 Nasir, Adeeb 12 Hayward 21-11.25(6.69m) +1.0 1  
22 Poarch, Brycen 11 Casa Grande 21-11.00(6.68m) +0.0 1  
23 Brown, Isaiah 12 Fairfield 21-10.00(6.65m) +1.6 1  
24 Drew, Damariay 12 Livermore 21-09.50(6.64m) +0.5 1  
25 Barla, Connor 12 Golden Sierra 21-09.00(6.63m) +1.1 1  
26 Taylor, Joshua 11 Franklin (S) 21-08.50(6.62m) +0.6 1  
27 Bernal, Chris 12 Fallbrook 21-07.25(6.58m) nwi 1  
28 Hipol, Jireal 12 Mt Pleasant 21-04.75(6.52m) +1.0 1  
29 Washington, Marcus 11 Palma 21-00.25(6.41m) +0.0 1  
30 Rose, Marcus 11 Clovis North 21-00.00(6.40m) +1.2 1  
31 Marzetta, Tyree 10 Abraham Lincoln 20-07.50(6.29m) +0.9 1  
32 Ruggiero, Adam 12 Desert Christian 20-06.25(6.25m) +1.3 1  
33 Cheval, Thomas 11 Birmingham 19-11.00(6.07m) +0.7 1  
 
Womens Long Jump Back to top
  Name Yr School Finals Wind H# Pts
1 Faulknor, Alexis 12 Serra (SS) 20-03.00(6.17m) +5.4 1 10
2 Gibbs, Jasmine 12 El Camino 19-11.75(6.09m) +4.6 1 8
3 Jones, Margaux 9 Redlands 19-10.50(6.06m) +2.7 1 6
4 Curenton, Ashlie 12 Silverado 19-05.75(5.94m) +1.5 1 5
5 Brazzel, Tamika 12 El Camino 18-10.25(5.75m) +3.8 1 4
6 Guinn, Jasmine 12 Berkeley 18-09.25(5.72m) +3.5 1 3
7 Scott, Mishe 12 El Camino 18-08.25(5.70m) +3.0 1 2
8 Nielsen, Kendal 12 Bear River 18-07.50(5.68m) +4.8 1 1
9 Smith, Mikaela 9 Clovis North 18-04.25(5.59m) +3.2 1  
 
Womens Long Jump Back to top
  Name Yr School Prelims Wind H# Pts
1 Faulknor, Alexis 12 Serra (SS) 19-04.75(5.91m) +1.0 1  
2 Gibbs, Jasmine 12 El Camino 19-04.50(5.91m) +1.7 1  
3 Jones, Margaux 9 Redlands 19-04.00(5.89m) +0.6 1  
4 Curenton, Ashlie 12 Silverado 19-03.75(5.89m) +0.5 1  
5 Scott, Mishe 12 El Camino 19-00.00(5.79m) +0.0 1  
6 Brazzel, Tamika 12 El Camino 18-10.00(5.74m) nwi 1  
7 Nielsen, Kendal 12 Bear River 18-05.25(5.62m) +0.8 1  
8 Smith, Mikaela 9 Clovis North 18-05.00(5.61m) +0.8 1  
9 Guinn, Jasmine 12 Berkeley 18-04.00(5.59m) +0.3 1  
9 Scott, Jamara 12 Golden Valley 18-04.00(5.59m) +1.8 1  
11 Whitburn, Brooke 11 Pleasant Valley 18-03.25(5.57m) +1.3 1  
12 Hadnot, Jannell 11 Tokay 18-01.00(5.51m) +1.1 1  
13 Sato, Kristin 12 Valley Christian 17-11.50(5.47m) +0.0 1  
14 Stone, Tiffini 12 Canyon (Canyon C 17-08.00(5.38m) +0.9 1  
15 Gustafson, Kendall 11 Palisades Charte 17-06.75(5.35m) +1.7 1  
15 Arnold, Mackenzie 9 River Valley 17-06.75(5.35m) +2.0 1  
17 Taylor, Shea 12 Grace Davis 17-06.25(5.34m) nwi 1  
18 Leath, Cydney 12 Mt Pleasant 17-05.00(5.31m) +0.4 1  
19 Black, Ashley 12 Clovis East 17-03.50(5.27m) +1.0 1  
20 Mcdonald, Devon 12 Miramonte 17-03.25(5.26m) +2.3 1  
21 Auzenne, Micha 11 St Francis (Moun 17-01.75(5.23m) +1.1 1  
22 Hicks, Traci 12 Poly (Long Beach 16-11.50(5.17m) +1.7 1  
23 Swanson, Hadley 11 Campolindo 16-11.25(5.16m) +1.3 1  
24 Schuhmeier, Phoenisha 12 Monterey Trail 16-04.00(4.98m) +2.8 1  
25 Speech, Melanie 12 Lowell 16-03.75(4.97m) +1.3 1  
26 Chigamba, Kanukai 10 Oakland Tech 15-11.00(4.85m) +1.1 1  
26 Reichenbach, Rachel 10 Foothill (Pleasa 15-11.00(4.85m) -0.3 1  
28 Orisarayi, Naomi 9 El Camino Real 15-08.25(4.78m) +1.9 1  
-- Miller, Kierra 12 Carson FOUL(--) nwi 1  

Notations:
c = converted Hand Timing
w = Wind Assisted (>2.0 meters per second)
^ = Altitude
Team Scores
Women - Team Rankings - 16 Events Scored =============================================================================== 1) Serra /ss SS 60 2) El Camino /sd SD 36 3) Poly (LB) /ss SS 29 4) Harvard Westlake /ss 26 5) St. Mary's Academy/ss 22 6) Holy Names /nc NC 20 7) Rancho Cucamng/ss SS 16 7) Fairfield /sj SJ 16 9) Great Oak/ss 15 10) Colony /ss 14 10) Vacaville /sj SJ 14 12) Vista Murrieta/ss 13 13) Oaks Christian/ss SS 12 14) Piedmont Hills/cc CC 11 15) Dos Pueblos /ss SS 10 15) Presentation /cc CC 10 15) Redwood /ce CE 10 15) Simi Valley /ss SS 10 15) South Pasadena/ss SS 10 15) Aptos /cc CC 10 21) Jordan /ss SS 9 21) Tamalpais /nc NC 9 21) Carlsbad /sd SD 9 24) Palos Verdes/ss 8 24) Templeton /ss 8 24) La Sierra /ss SS 8 24) Arroyo Grande /ss SS 8 24) El Diamante/ce 8 24) Rosemont/sj 8 30) Clairmont /sd SD 7 30) Clovis West /ce CE 7 30) Silverado /ss SS 7 30) Santa Margarit/ss SS 7 34) Marina /ss SS 6 34) Redlands /ss SS 6 34) San Leandro /nc NC 6 34) Buchanan /ce CE 6 34) Alemany /ss SS 6 34) Thousand Oaks /ss SS 6 40) Edison /ce CE 5 40) The Branson /nc NC 5 40) Stockdale /ce CE 5 40) Vallejo /sj SJ 5 40) Bakersfield Christian /ce 5 40) Oak Park /ss SS 5 40) San Juan Hills 5 47) Rancho Bernrdo/sd SD 4.50 47) Foothill /ss SS 4.50 49) Chico /no NO 4 49) Independence /ce 4 49) Torrey Pines /sd SD 4 49) Kingsburg /ce CE 4 49) Bear River /sj SJ 4 49) Mt. Pleasant /cc CC 4 55) Berkeley /nc NC 3 55) Elsinore /ss SS 3 55) Homestead /cc CC 3 55) La Quinta(LQ) /ss SS 3 55) San Lorenzo Vl/cc CC 3 55) Los Osos /ss SS 3 61) Buena /ss SS 2.50 61) Santa Rosa /nc NC 2.50 63) Beverly Hills /ss SS 2 63) West Hills /sd SD 2 63) Oceanside /sd SD 2 63) Scotts Valley /cc CC 2 63) Maranatha /ss SS 2 63) Newbury Park /ss SS 2 63) Hercules /nc NC 2 63) California /nc NC 2 63) Pacifica (O) /ss SS 2 72) Christian /sd SD 1 72) Newport Harbor/ss SS 1 72) Mountain View /cc CC 1 72) Sierra /sj SJ 1 72) Mt. Carmel /sd SD 1 72) Rio Mesa /ss SS 1 72) Centennial-Cor/ss SS 1 72) Las Lomas /nc NC 1 72) Paloma Valley /ss SS 1 72) Roosevelt, E/ss 1 72) Bonita /ss SS 1 Men - Team Rankings - 16 Events Scored =============================================================================== 1) Notre Dame(SO)/ss SS 36 2) Serra /ss SS 32 3) La Costa Cnyn /sd SD 25 3) Newport Harbor/ss SS 25 5) Rio Mesa /ss SS 22 6) St. John Bosco/ss SS 13 6) El Camino /sd SD 13 6) Vista Murrieta/ss 13 6) Palo Alto /cc CC 13 10) Claremont /ss SS 12 10) Carson /la LA 12 10) San Leandro /nc NC 12 13) Buchanan /ce CE 11 13) Loyola /ss SS 11 13) James Logan /nc NC 11 16) Beverly Hills /ss SS 10 16) Army & Navy /sd SD 10 16) Damien /ss SS 10 16) Murrieta Vally/ss SS 10 16) California /nc NC 10 16) Stockdale /ce CE 10 16) Hart /ss SS 10 23) Santiago (Cor)/ss SS 8 23) Arroyo Grande /ss SS 8 23) Oak Park /ss SS 8 23) Dorsey /la LA 8 23) Ramona /ss SS 8 23) West Hills /sd SD 8 23) Canyon-Ana /ss SS 8 23) Rancho Cucamng/ss SS 8 23) Redlands /ss SS 8 23) Burrough(Rid) /ss SS 8 23) McClatchy /sj SJ 8 34) Del Oro /sj SJ 7 34) Kennedy-Richmond/nc 7 36) Palos Verdes/ss 6 36) Gridley /no NO 6 36) Colony /ss 6 36) Oakdale /sj SJ 6 36) Vista /sd SD 6 36) Chaminade /ss SS 6 36) Central 6 36) Summit/ss 6 36) DeLaSalle /nc NC 6 36) Hanford /ce CE 6 36) St. Joseph-Nd /nc NC 6 36) Poly (LB) /ss SS 6 48) Palo Verde /sd SD 5 48) Woodbridge /ss SS 5 48) Golden Valley /sj SJ 5 48) Servite /ss SS 5 48) Roosevelt, E/ss 5 48) Bishop O'Dowd /nc NC 5 48) Great Oak/ss 5 48) La Salle /ss SS 5 56) Arcadia /ss SS 4 56) Warren /ss SS 4 56) Piner /nc NC 4 56) Harvard Westlake /ss 4 56) San Gorgonio /ss SS 4 56) Stagg /sj SJ 4 56) Wilcox /cc CC 4 56) San Lorenzo Vl/cc CC 4 64) Amador Valley /nc NC 3 64) Shafter /ce CE 3 64) Deer Valley 3 64) Bullard /ce CE 3 64) Redondo /ss SS 3 64) Rancho Bernrdo/sd SD 3 64) Milpitas /cc CC 3 64) San Clemente /ss SS 3 72) Glendale /ss SS 2 72) Cathedral Catholic/sd 2 72) Argonaut /sj SJ 2 72) St. Francis/cc 2 72) Oakmont /sj SJ 2 72) Vacaville /sj SJ 2 78) El Toro /ss SS 1 78) Central /ce CE 1 78) West Ranch /ss 1 78) Fairfield /sj SJ 1 78) San Marino /ss SS 1 78) Westlake /ss SS 1 78) Campolindo /nc NC 1 78) Taft /la LA 1 78) Clovis East /ce CE 1 78) Mater Dei /ss SS 1 78) Castle Park /sd SD 1

 



Post to:  
Post as: 
2 comment(s)  
Shane
Time Warner Cable will be covering the events of Saturday, June 2 and will air thier coverage on Sunday, June 3, please check your local listings. Additionally, the program will be viewable on socal101tv.com a week following the event.
nascarboy
will there be live feed?
 
 
Switch to Full Version